Regional Weather Roundup
Issued by NWS Wakefield, VA

Home | Current Version | Previous Version | Graphics & Text | Print | Product List | Glossary On
Versions: 1 2 3 4 5 6 7 8 9 10 11 12 13 14 15 16 17 18 19 20 21 22 23 24 25 26 27 28 29 30 31 32 33 34 35 36 37 38 39 40 41 42 43 44 45 46 47 48 49 50
773
ASUS41 KAKQ 060215
RWRAKQ

REGIONAL WEATHER ROUNDUP
NATIONAL WEATHER SERVICE WAKEFIELD VA
1000 PM EDT THU MAY 05 2016

Note: "fair" indicates few or no clouds below 12,000 feet with no
significant weather and/or obstructions to visibility. * = Denotes
station may not report precipitation (e.g., rain,snow,etc.),
thunder or fog.

VAZ042-051-052>054-056-060300-
NORTHERN VIRGINIA

CITY           SKY/WX    TMP DP  RH WIND       PRES   REMARKS
WASH NATIONAL  CLOUDY    55  49  80 N9        29.68R
DULLES         CLOUDY    52  49  89 N8        29.68R
FORT BELVOIR   CLOUDY    55  49  81 N2        29.68R
QUANTICO       LGT RAIN  55  50  83 N6        29.69R
FREDERICKSBRG* DRIZZLE   54  54 100 CALM      29.68R
STAFFORD*      CLOUDY    51  49  91 CALM      29.72R
WARRENTON      CLOUDY    54  47  76 N6        29.68R
CULPEPER*      CLOUDY    54  51  88 N6        29.69R
MANASSAS*      CLOUDY    54  52  94 N7        29.69R
LEESBURG*      RAIN      54  54 100 N6        29.70R
WINCHESTER     LGT RAIN  52  50  93 CALM      29.70S
FRONT ROYAL*   CLOUDY    52  50  93 N3        29.68S
LURAY*         CLOUDY    52  52 100 CALM      29.69R
$$

VAZ048-049-060>072-079>083-060300-
CENTRAL AND SOUTH CENTRAL VIRGINIA

CITY           SKY/WX    TMP DP  RH WIND       PRES   REMARKS
RICHMOND       LGT RAIN  51  50  96 N7        29.66S FOG
CHESTERFIELD*  CLOUDY    52  39  62 N3        29.68R
PETERSBURG*    LGT RAIN  52  52 100 NE5       29.67S
HANOVER        LGT RAIN  51  49  92 CALM      29.69R FOG
TAPPAHANNOCK*  DRIZZLE   52  52 100 N5        29.67S
QUINTON*       CLOUDY    51  50  99 N8        29.66R FOG
CHARLOTTSVILLE CLOUDY    53  49  86 CALM      29.68R
GORDONSVILLE*  CLOUDY    53  50  90 NE6       29.68R
ORANGE*        LGT RAIN  52  52 100 CALM      29.70R
LOUISA*        DRIZZLE   55  52  88 NE6       29.67R
BUMPASS*       CLOUDY    51  50  98 CALM      29.68R
FARMVILLE*     RAIN      52  52 100 CALM      29.66S
CREWE*         CLOUDY    50  50 100 CALM      29.67R
FORT PICKETT*  NOT AVBL
CHASE CITY*    CLOUDY    51  49  94 N3        29.67R
CLARKSVILLE*   CLOUDY    52  52 100 N6        29.66R
SOUTH HILL*    CLOUDY    50  49  99 N5        29.71R
LAWRENCEVILLE* CLOUDY    50  50 100 CALM      29.65R
EMPORIA*       RAIN      50  50 100 N5        29.66S
$$

VAZ088>098-060300-
SOUTHEAST VIRGINIA

CITY           SKY/WX    TMP DP  RH WIND       PRES   REMARKS
NORFOLK        CLOUDY    52  48  86 NE16      29.63S
VIRGINIA BEACH LGT RAIN  54  48  80 NE18      29.62R FOG
NORFOLK NAVAL  CLOUDY    53  49  86 NE12      29.65R
WEST POINT*    CLOUDY    51  50  97 N3        29.67S
SALUDA*        CLOUDY    51  51 100 N6        29.65S
NEWPORT NEWS   CLOUDY    52  52 100 NE7       29.64S
LANGLEY AFB    CLOUDY    52  49  91 NE14      29.63S
FORT EUSTIS    DRIZZLE   52  52  99 NE3       29.63R
WILLIAMSBURG*  MOCLDY    54  52  94 NE3       29.66S
HR EXEC AP*    CLOUDY    54  50  87 CALM      29.66R
FRANKLIN*      LGT RAIN  51  50  97 CALM      29.66R
US460-WAKEFLD  LGT RAIN  51  50  96 N5        29.65S FOG
$$

VAZ020-022-025-037-045-060300-
WEST CENTRAL AND SOUTHWEST VIRGINIA

CITY           SKY/WX    TMP DP  RH WIND       PRES   REMARKS
STAUNTON*      RAIN      53  52  97 CALM      29.71R
WAYNESBORO*    CLOUDY    50  48  95 NW3       29.69R
HOT SPRINGS VA LGT RAIN  43  43 100 NW9       29.69R VSB 1/4
LYNCHBURG      LGT RAIN  50  50 100 CALM      29.69R
DANVILLE       LGT RAIN  49  47  93 NW8       29.69R
SOUTH BOSTON*  CLOUDY    51  50  95 N5        29.67S
MARTINSVILLE   DRIZZLE   44  43  95 CALM      29.73R
ROANOKE        CLOUDY    51  43  74 CALM      29.72R
BLACKSBURG     CLOUDY    44  42  93 W5        29.75S
DUBLIN*        LGT RAIN  46  44  92 CALM      29.75S
MARION*        DRIZZLE   42  40  93 W10       29.79R
HILLSVILLE*    LGT RAIN  40  39  97 NW10      29.72R
RICHLANDS*     LGT RAIN  42  33  69 NW5       29.79R
WISE*          CLOUDY    45  41  87 NW12G17   29.82R
ABINGDON*      DRIZZLE   46  44  93 W5        29.81R
$$

MDZ021>025-VAZ099-100-060300-
SOUTHERN MARYLAND AND THE DELMARVA PENINSULA

CITY           SKY/WX    TMP DP  RH WIND       PRES   REMARKS
PATUXENT RIVER CLOUDY    52  49  89 NE8       29.67R
BAY BRIDGE APT NOT AVBL
LEONARDTOWN    CLOUDY    50  48  93 CALM      29.68S
DOVER          CLOUDY    52  52 100 E7        29.66R
GEORGETOWN     CLOUDY    50  49  96 NE6       29.66R FOG
EASTON         NOT AVBL
CAMBRIDGE      CLOUDY    52  46  82 CALM      29.66R
SALISBURY      CLOUDY    50  49  96 NE7       29.65R
OCEAN CITY     CLOUDY    51  47  86 NE12G22   29.64F
WALLOPS ISLAND LGT RAIN  50  48  93 N10       29.64F FOG
ACCOMACK*      CLOUDY   N/A N/A N/A N7        29.65S
$$

NCZ012>017-030>032-060300-
NORTH CENTRAL AND EASTERN NORTH CAROLINA

CITY           SKY/WX    TMP DP  RH WIND       PRES   REMARKS
ROANOKE RAPIDS CLOUDY    50  50 100 N6        29.64R
RALEIGH        LGT RAIN  49  47  93 W5        29.67R
ELIZABETH CITY RAIN      51  49  92 N13       29.63F FOG
AHOSKIE*       DRIZZLE   51  50  95 N6        29.64R
EDENTON*       CLOUDY    51  51 100 NE8       29.62F
CURRITUCK*     HVY RAIN  52  50  93 N7        29.66R
KILL DEVIL HLS CLOUDY    50  49  97 N8        29.62S
MANTEO         DRIZZLE   50  50 100 N15G21    29.63S
CAPE HATTERAS  CLOUDY    54  50  86 N9G21     29.60R
TARBORO*       CLOUDY    54  52  95 E3        29.65R
GOLDSBORO      NOT AVBL
WASHINGTON     CLOUDY    52  50  93 E3        29.64R
GREENVILLE     CLOUDY    54  52  94 CALM      29.67R
NEW BERN       LGT RAIN  54  52  93 E3        29.65R
WILMINGTON     CLEAR     55  48  77 W6        29.66R
$$

VAZ048-060300-
ELSEWHERE

CITY           SKY/WX    TMP DP  RH WIND       PRES   REMARKS
HARRISBURG PA  LGT RAIN  56  45  66 NW6       29.67R
BALTIMORE      CLOUDY    54  49  83 N5        29.67R
ANNAPOLIS      CLOUDY    54  50  86 NE5       29.67R
ANDREWS AFB    CLOUDY    53  49  86 NE3       29.67R
PHILADELPHIA   CLOUDY    57  45  64 NE5       29.67R
HENDERSON NC   DRIZZLE   51  51 100 N5        29.64F
GREENSBORO     RAIN      46  45  96 NW9       29.69R FOG
ROCKY MOUNT    LGT RAIN  52  52 100 NE7       29.64R FOG
$$

VAZ100-060300-
MARINE

STATION/POSITION TIME  TEMP    WIND        PRES    WAVE   SWELL
                       AIR SEA DIR/SP/G            HT/PER HT/PER
                 (UTC) (F)     (DEG/KT/KT) (MB)    (FT/S) (FT/S)
BRANDYWINE LGT   0100   51                 1003.9R
CAPE MAY NJ      0100   50 56              1003.5R
LEWES DE         0100   51 55              1003.8R
15NM E FENWICK I 0150   50 51              1002.9R   7/ 8
OCEAN-CITY-INLET 0100   50 55              1002.9R
WACHAPREAGUE VA  0100   50 57              1003.4R
THOMAS POINT MD  0200   54 57   20/  4/  5 1006.1R
GOOSES REEF MD   0200   54 58   60/  8/ 10 1005.7R   1/ 2
COVE POINT MD    0100   52                 1004.8R
SOLOMONS ISLAND  0100   52 60                N/A
BISHOPS HEAD MD  0100   52 58              1003.3R
POTOMAC MD       0200   53 59   60/ 10/ 14 1003.4R   1/ 3
CAMBRIDGE MD     0100   53 60              1003.4R
LEWISETTA VA     0100   53 61              1003.9R
RAPPAHANNOCK LGT 0100                      1004.2R
STINGRAY PT      0200   53 61   70/ 10/ 16 1004.4R   2/ 3
YORK RVR RNG VA  0100   53                 1003.0R
YORKTOWN VA      0100   53 63              1003.3R
JAMESTOWN VA     0200   52 67   20/  4/  8   N/A     0
DOMINION TERM VA 0100   53                 1003.4R
KIPTOPEKE VA     0100      61                N/A
CHES BAY BRIDGE  0100   52 60              1002.9R
CAPE HENRY VA    0100   51                   N/A
CHESAPEAKE LGHT  0100   50      20/ 18/ 20 1004.0R
WILLOUBY STN VA  0100   53                 1004.2R
CAPE HENRY BUOY  0112      55                N/A     6/ 8
OFFSHORE WE BUOY 0151      54                N/A     7/ 8   5/ 8
64NM E OF VA BCH 0150   50 51  350/ 19/ 23 1001.1R   8/ 8
DUCK PIER NC     0100   51 62              1000.9R
44100 DUCK FRF   0124      55                N/A     8/ 7
44056 DUCK FRF   0111      59                N/A     7/ 7
OREGON INLET NC  0100   51 61              1002.5R
HATTERAS NC      0100   56 67              1001.2F
DIAMOND SHLS NC  0150   56 76  360/ 19/ 23 1001.6R   5/ 7
CAPE LOOKOUT NC  0100   57     350/ 11/ 12 1002.6R
$$




USA.gov is the U.S. government's official web portal to all federal, state and local government web resources and services.